Погода в Красногорском

Россия / Республика Марий Эл     56°09′08″N   48°19′21″E
темп.,
°C
ветер,
м/с
пор.,
м/с
влажн.,
%
обл.,
%
осадки,
мм/ч
давл.,
гПа
погр.,
м
28 октября, чт
чт2800:00+4зюз61389100 0.4 1009971
03:00+4з51297100 1.4 1009761
06:00+5з51084100 0.0 10091018
09:00+5з51084100 0.1 1010959
12:00+7зюз587291 0.0 1010985
15:00+7зюз4874100 0.0 1010908
18:00+6з2683100 0.2 1012511
21:00+5сз2593100 1.4 1013851
29 октября, пт
пт2900:00+2ссв5990100 0.3 1016482
03:00−1ссв59725 0.3 1021540
06:00−3ссв37765 0.0 1024416
09:00−2св2460100 0.0 1027441
12:00+1юв114427 0.0 1027572
15:00+1ююз244410 0.0 1027574
18:00−1ю3659100 0.0 1027170
21:000ююз41058100 0.0 1025345
30 октября, сб
сб3000:00+2ююз51377100 0.6 1023707
03:00+4юз51387100 1.1 1021653
06:00+4зюз514919 0.0 1020476
09:00+6зюз51491100 0.0 1020580
12:00+8з5138460 0.0 1020632
15:00+9з5128253 0.0 1020575
18:00+7з311925 0.0 1022304
21:00+6з3109610 0.0 1023257
31 октября, вс
вс3100:00+4з259899 0.0 1024109
03:00+4з249890 0.0 102596
06:00+4юз249967 0.0 102586
09:00+6юз399699 0.0 1025377
12:00+10зюз41073100 0.0 1024552
15:00+10зюз5126575 0.0 1023540
18:00+8зюз4137574 0.0 1023402
21:00+6зюз4127975 0.0 1024371
1 ноября, пн
пн100:00+5зюз4118565 0.0 1023320
03:00+4зюз3119051 0.0 1023272
06:00+3зюз31191100 0.0 1023255
09:00+5зюз41379100 0.0 1023416
12:00+9зюз41263100 0.0 1022573
15:00+8з41163100 0.0 1021486
18:00+6зюз41274100 0.0 1022337
21:00+5з31081100 0.0 1022255